Weather observations for the past three days for
Kingman, Kingman Airport
Imperial (Metric)
Date Time (mst) Wind (mph) Vis. (mi.) Weather Sky Cond. Temperature (ºF) Relative Humidity Wind Chill (°F) Heat Index (°F) Pressure Precipitation (in)
Air Dwpt 6 hour altimeter (in) sea level (mb) 1 hr 3 hr 6 hr
Max. Min.
17 14:51 SW 26 G 41 10.00 Fair and Windy CLR 93 30 10% 88 29.64 995.9
17 13:51 SW 28 G 40 10.00 Fair and Windy CLR 91.9 30 11% 88 29.66 996.4
17 12:51 SW 25 G 39 10.00 Fair and Breezy CLR 91 28 10% 87 29.66 996.7
17 11:51 SW 26 G 36 10.00 Fair and Windy CLR 91 28 10% 87 29.67 996.8
17 10:51 W 23 G 31 10.00 Fair and Breezy CLR 90 32 91 68 13% 86 29.67 996.6
17 09:51 SW 15 G 25 10.00 Fair CLR 89.1 30.9 12% 85 29.66 996.6
17 08:51 SW 14 10.00 Fair CLR 86 33.1 15% 83 29.67 997.0
17 07:51 SW 15 10.00 Fair CLR 82.9 33.1 17% 80 29.68 996.9
17 06:51 S 7 10.00 Fair CLR 78.1 33.1 19% 77 29.68 996.9
17 05:51 SE 7 10.00 Fair CLR 70 30.9 23% 29.66 996.7
17 04:51 SE 10 10.00 Fair CLR 72 30.9 81 69.1 22% 29.65 996.2
17 03:51 S 10 10.00 Fair CLR 73 32 22% 29.65 996.2
17 02:51 S 10 10.00 Fair CLR 75 34 22% 76 29.66 996.4
17 01:51 S 12 10.00 Fair CLR 73 30 20% 29.68 997.0
17 00:51 SE 6 10.00 Fair CLR 73 27 18% 29.69 997.6
16 23:51 S 9 10.00 Fair CLR 78.1 25 14% 77 29.69 997.3
16 22:51 S 12 10.00 Fair CLR 79 25 95 77 14% 78 29.7 997.7
16 21:51 SE 10 10.00 Fair CLR 77 26.1 15% 76 29.71 998.2
16 20:51 S 8 10.00 Fair CLR 81 24.1 12% 79 29.71 997.9
16 19:51 SW 15 G 24 10.00 Fair CLR 88 25 10% 84 29.7 997.4
16 18:51 S 20 G 30 10.00 Fair CLR 91 25 9% 87 29.69 997.5
16 17:51 SW 18 G 29 10.00 Fair CLR 93 24.1 8% 88 29.7 998.0
16 16:51 SW 20 G 33 10.00 Fair CLR 95 24.1 96.1 91.9 8% 90 29.71 998.4
16 15:51 SW 23 G 33 10.00 Fair and Breezy CLR 95 24.1 8% 90 29.74 999.3
16 14:51 SW 28 G 36 10.00 Fair and Windy CLR 96.1 21.9 7% 91 29.75 999.3
16 13:51 S 26 G 36 10.00 Fair and Windy CLR 96.1 24.1 7% 91 29.77 999.7
16 12:51 SW 25 G 36 10.00 Fair and Breezy CLR 93.9 23 8% 89 29.78 1000.0
16 11:51 W 21 G 29 10.00 Fair and Breezy CLR 93.9 26.1 9% 89 29.79 1000.4
16 10:51 W 22 10.00 Fair and Breezy CLR 93 28 93 66 10% 88 29.8 1000.5
16 09:51 SW 21 10.00 Fair and Breezy CLR 90 32 13% 86 29.79 1000.6
16 08:51 SW 13 10.00 Fair CLR 88 32 13% 84 29.8 1001.0
16 07:51 Vrbl 3 10.00 Fair CLR 82.9 36 19% 80 29.8 1001.0
16 06:51 E 3 10.00 Fair CLR 79 35.1 20% 78 29.79 1000.6
16 05:51 SE 8 10.00 Fair CLR 70 34 27% 29.79 1000.7
16 04:51 SW 8 10.00 Fair CLR 68 33.1 88 66.9 27% 29.78 1000.7
16 03:51 SW 7 10.00 Fair CLR 72 33.1 24% 29.78 1000.3
16 02:51 SW 9 10.00 Fair CLR 75.9 36 23% 77 29.78 1000.0
16 01:51 SW 12 10.00 Fair CLR 80.1 36 20% 79 29.79 1000.2
16 00:51 SW 15 10.00 Fair CLR 84.9 34 16% 82 29.8 1000.4
15 23:51 SW 14 10.00 Fair CLR 86 28.9 13% 83 29.81 1000.7
15 22:51 S 17 10.00 Fair CLR 88 27 100.9 84 11% 84 29.8 1000.5
15 21:51 S 13 10.00 Fair CLR 87.1 26.1 11% 84 29.8 1000.6
15 20:51 S 10 10.00 Fair CLR 84.9 19.9 9% 82 29.79 1000.3
15 19:51 SW 14 10.00 Fair CLR 93 21 7% 88 29.79 1000.3
15 18:51 SW 18 G 28 10.00 Fair CLR 97 19 6% 92 29.78 1000.2
15 17:51 SW 22 G 31 10.00 Fair and Breezy CLR 99 19 5% 93 29.79 1000.5
15 16:51 SW 24 G 35 10.00 Fair and Breezy CLR 100 19 102 98.1 5% 94 29.8 1000.8
15 15:51 SW 18 G 31 10.00 Fair CLR 102 19 5% 96 29.81 1001.0
15 14:51 S 24 G 35 10.00 Fair and Breezy CLR 100.9 24.1 6% 95 29.84 1001.8
15 13:51 SW 22 G 40 10.00 Fair and Breezy CLR 100 19.9 5% 94 29.85 1002.1
15 12:51 SW 30 G 44 10.00 Fair and Windy CLR 100.9 26.1 7% 95 29.86 1002.6
15 11:51 SW 24 G 41 10.00 Fair and Breezy CLR 100 28.9 8% 94 29.87 1003.0
15 10:51 SW 22 G 31 10.00 Fair and Breezy CLR 98.1 26.1 99 73.9 8% 93 29.89 1003.7
15 09:51 SW 18 G 26 10.00 Fair CLR 96.1 26.1 8% 91 29.89 1003.9
15 08:51 W 15 G 21 10.00 Fair CLR 93.9 27 9% 89 29.9 1004.2
15 07:51 Calm 10.00 Fair CLR 87.1 30 13% 83 29.91 1004.4
15 06:51 W 5 10.00 Fair CLR 81 30 16% 79 29.91 1004.5
15 05:51 S 9 10.00 Fair CLR 75 28.9 18% 76 29.89 1004.0
15 04:51 S 12 10.00 Fair CLR 75 27 84.9 75 17% 76 29.9 1004.2
15 03:51 S 12 10.00 Fair CLR 80.1 28 15% 78 29.9 1004.2
15 02:51 S 14 10.00 Fair CLR 82 28 14% 80 29.9 1004.2
15 01:51 SW 16 10.00 Fair CLR 82.9 28.9 14% 80 29.9 1004.1
15 00:51 S 13 10.00 Fair CLR 82.9 28.9 14% 80 29.91 1004.3
14 23:51 S 14 10.00 Fair CLR 82.9 28.9 14% 80 29.92 1004.8
14 22:51 SW 13 10.00 Fair CLR 84.9 26.1 100.9 82 12% 82 29.92 1005.0
14 21:51 SW 9 10.00 Fair CLR 82 27 13% 80 29.92 1005.3
14 20:51 S 10 10.00 Fair CLR 84.9 27 12% 82 29.91 1004.8
14 19:51 W 9 10.00 Fair CLR 91.9 27 10% 88 29.9 1004.3
14 18:51 W 15 G 28 10.00 Fair CLR 97 28 9% 92 29.9 1004.3
14 17:51 SW 13 G 29 10.00 Fair CLR 98.1 30.9 9% 93 29.89 1004.5
14 16:51 NW 10 G 22 10.00 Fair CLR 100.9 32 100.9 93 9% 95 29.89 1004.6
14 15:51 Calm 10.00 Fair CLR 99 28.9 8% 94 29.91 1005.2
Date Time (mst) Wind (mph) Vis. (mi.) Weather Sky Cond. Air Dwpt Max. Min. Relative Humidity Wind Chill (°F) Heat Index (°F) altimeter (in) sea level (mb) 1 hr 3 hr 6 hr
6 hour
Temperature (ºF) Pressure Precipitation (in)